Regional Weather Roundup
Issued by NWS

Home | Current Version | Previous Version | Graphics & Text | Print | Product List | Glossary On
Versions: 1 2 3 4 5 6 7 8 9 10 11 12 13 14 15 16 17 18 19 20 21 22 23 24 25 26 27 28
000
ASUS45 KCYS 240410
RWRWY

WYOMING REGIONAL WEATHER ROUNDUP
NATIONAL WEATHER SERVICE CHEYENNE WY
1000 PM MDT THU OCT 23 2014

NOTE:  "FAIR" INDICATES FEW OR NO CLOUDS BELOW 12,000 FEET
WITH NO SIGNIFICANT WEATHER AND/OR OBSTRUCTIONS TO VISIBILITY.

WYZ001-240500-
YELLOWSTONE NATIONAL PARK

CITY           SKY/WX    TMP DP  RH WIND       PRES   REMARKS
LK YELLOWSTONE   N/A     43  28  55 VRB3      30.18
W YELLOWSTONE  NOT AVBL

$$
WYZ002>013-054>058-071-098>099-240500-
NORTHERN WYOMING

CITY           SKY/WX    TMP DP  RH WIND       PRES   REMARKS
JACKSON        CLOUDY    46  28  49 S9        30.13S
CODY           CLOUDY    57  27  30 S6        29.97
GREYBULL       CLOUDY    49  28  44 SE6       29.94R
WORLAND        CLOUDY    43  28  55 S5        29.95R
SHERIDAN       MOCLDY    42  32  67 SW6       29.91F
BUFFALO        MOCLDY    51  26  37 NW3       29.96S
GILLETTE       MOCLDY    49  30  48 S10       29.94S
HULETT         FAIR      46  30  53 CALM      29.95
NEWCASTLE      FAIR      46  28  49 NE6       29.97

$$
WYZ014>020-022>026-101>103-240500-
CENTRAL WYOMING

CITY           SKY/WX    TMP DP  RH WIND       PRES   REMARKS
BIG PINEY      MOCLDY    37  23  56 N3        30.19S
PINEDALE       MOCLDY    41  28  60 CALM      30.21
DUBOIS         FAIR      50  19  29 NW17G29   30.09S
LANDER         MOCLDY    56  23  27 SE6       30.01S
RIVERTON       PTCLDY    50  22  33 N6        30.03R
CASPER         MOCLDY    55  26  32 SW12      30.03S
DOUGLAS        CLOUDY    59  30  33 W8        30.02F

$$
WYZ021-027>030-104>119-240500-
SOUTHERN WYOMING

CITY           SKY/WX    TMP DP  RH WIND       PRES   REMARKS
EVANSTON       PTCLDY    51  25  36 SW12      30.19S
KEMMERER       MOCLDY    46  23  39 CALM      30.20S
FORT BRIDGER   FAIR      50  22  32 SW9       30.22R
ROCK SPRINGS   PTCLDY    49  25  39 S7        30.18F
DIXON          FAIR      40  35  80 CALM      30.24F
RAWLINS        PTCLDY    52  28  39 W16       30.18S
SARATOGA       FAIR      48  32  53 SW12      30.22S
LARAMIE        MOCLDY    48  29  47 S6        30.20F
CHEYENNE       CLOUDY    53  32  44 S7        30.15R
TORRINGTON     MOCLDY    53  31  42 SE6       30.02R
PINE BLUFFS    FAIR      45  34  65 CALM      30.11S

$$



USA.gov is the U.S. government's official web portal to all federal, state and local government web resources and services.